Lexington, NE

1:06 AM CDT on August 25, 2016 (GMT -0500)
Kelly

Weather History for KLXN - January, 2012

Change the Weather History Date:

Saturday, January 14, 2012

  Actual Average Record
Temperature  
Mean Temperature 34 °F -  
Max Temperature 46 °F 37 °F 62 °F (2006)
Min Temperature 21 °F 13 °F 0 °F (2005)
Degree Days  
Heating Degree Days 32    
Moisture  
Dew Point 16 °F    
Average Humidity 50    
Maximum Humidity 79    
Minimum Humidity 22    
Precipitation  
Precipitation 0.00 in - - ()
Sea Level Pressure  
Sea Level Pressure 30.10 in    
Wind  
Wind Speed 15 mph (WNW)    
Max Wind Speed 25 mph    
Max Gust Speed 31 mph    
Visibility 10 miles    
Events      
Averages and records for this station are not official NWS values.
T = Trace of Precipitation, MM = Missing Value Source: NWS Daily Summary

Daily Weather History Graph

Daily Weather History Graph

Search for Another Location

Airport or City:

Trip Planner

Search our weather history database for the weather conditions in past years. The results will help you decide how hot, cold, wet, or windy it might be!

Date:

Astronomy

Jan. 14, 2012 Rise Set
Actual Time 8:01 AM CST 5:34 PM CST
Civil Twilight 7:31 AM CST 6:04 PM CST
Nautical Twilight 6:57 AM CST 6:38 PM CST
Astronomical Twilight 6:24 AM CST 7:11 PM CST
Moon No Moon Rise 10:45 AM CST (1/14)
Length of Visible Light 10h 33m
Length of Day
9h 32m
Waning Gibbous, 68% of the Moon is Illuminated
Jan 14
Waning Gibbous
Jan 16
Last Quarter
Jan 23
New
Jan 30
First Quarter
Feb 7
Full

Hourly Weather History & Observations

Time (CST) Temp. Windchill Dew Point Humidity Pressure Visibility Wind Dir Wind Speed Gust Speed Precip Events Conditions
12:15 AM 35.4 °F 26.4 °F 14.2 °F 42% 29.95 in 10.0 mi WNW 13.8 mph - N/A   Clear
12:35 AM 36.1 °F 25.9 °F 14.2 °F 41% 29.96 in 10.0 mi NW 18.4 mph 24.2 mph N/A   Clear
12:55 AM 37.0 °F 27.0 °F 13.6 °F 38% 29.97 in 10.0 mi NW 18.4 mph 24.2 mph N/A   Clear
1:15 AM 36.1 °F 26.9 °F 13.6 °F 40% 29.98 in 10.0 mi NW 15.0 mph - N/A   Clear
1:35 AM 33.8 °F 22.8 °F 14.4 °F 45% 29.99 in 10.0 mi NW 18.4 mph 21.9 mph N/A   Clear
1:55 AM 35.1 °F 23.5 °F 17.2 °F 48% 30.00 in 10.0 mi NW 21.9 mph 28.8 mph N/A   Clear
2:15 AM 35.1 °F 23.0 °F 20.3 °F 55% 30.02 in 10.0 mi NW 24.2 mph 31.1 mph N/A   Clear
2:35 AM 34.0 °F 22.4 °F 19.8 °F 56% 30.03 in 10.0 mi NW 20.7 mph 26.5 mph N/A   Clear
2:55 AM 33.3 °F 21.2 °F 20.3 °F 59% 30.04 in 10.0 mi NW 21.9 mph 26.5 mph N/A   Clear
3:15 AM 33.1 °F 20.1 °F 21.2 °F 62% 30.06 in 10.0 mi NW 25.3 mph 29.9 mph N/A   Clear
3:35 AM 32.7 °F 20.7 °F 21.6 °F 64% 30.07 in 10.0 mi NW 20.7 mph 31.1 mph N/A   Clear
3:55 AM 32.0 °F 19.5 °F 21.7 °F 66% 30.07 in 10.0 mi NW 21.9 mph 29.9 mph N/A   Clear
4:15 AM 31.5 °F 19.4 °F 21.7 °F 67% 30.08 in 10.0 mi NW 19.6 mph 25.3 mph N/A   Clear
4:35 AM 31.3 °F 18.5 °F 21.7 °F 68% 30.08 in 10.0 mi NW 21.9 mph 25.3 mph N/A   Clear
4:55 AM 30.2 °F 18.5 °F 21.2 °F 69% 30.09 in 10.0 mi NW 17.3 mph - N/A   Clear
5:15 AM 29.7 °F 17.8 °F 21.0 °F 70% 30.09 in 10.0 mi NW 17.3 mph 23.0 mph N/A   Clear
5:35 AM 29.3 °F 17.7 °F 20.5 °F 70% 30.11 in 10.0 mi NW 16.1 mph 23.0 mph N/A   Clear
5:55 AM 28.6 °F 17.7 °F 20.3 °F 71% 30.11 in 10.0 mi NNW 13.8 mph - N/A   Clear
6:15 AM 27.3 °F 17.1 °F 19.8 °F 73% 30.11 in 10.0 mi NNW 11.5 mph - N/A   Clear
6:35 AM 26.2 °F 16.4 °F 19.2 °F 75% 30.13 in 10.0 mi NW 10.4 mph - N/A   Clear
6:55 AM 25.5 °F 16.2 °F 18.5 °F 75% 30.13 in 10.0 mi NW 9.2 mph - N/A   Clear
7:15 AM 24.1 °F 15.2 °F 17.8 °F 77% 30.14 in 10.0 mi WNW 8.1 mph - N/A   Clear
7:35 AM 23.4 °F 13.5 °F 17.4 °F 78% 30.14 in 10.0 mi WNW 9.2 mph - N/A   Clear
7:55 AM 22.1 °F 12.0 °F 16.5 °F 79% 30.15 in 10.0 mi WNW 9.2 mph - N/A   Clear
8:15 AM 22.5 °F 12.4 °F 16.5 °F 78% 30.16 in 10.0 mi WNW 9.2 mph - N/A   Clear
8:35 AM 21.9 °F 11.7 °F 15.8 °F 77% 30.17 in 10.0 mi WNW 9.2 mph - N/A   Clear
8:55 AM 23.5 °F 13.0 °F 16.2 °F 73% 30.17 in 10.0 mi WNW 10.4 mph - N/A   Clear
9:15 AM 25.9 °F 16.0 °F 16.7 °F 68% 30.18 in 10.0 mi WNW 10.4 mph - N/A   Clear
9:35 AM 27.7 °F 17.6 °F 17.6 °F 66% 30.18 in 10.0 mi WNW 11.5 mph - N/A   Clear
9:55 AM 30.0 °F 19.5 °F 18.5 °F 62% 30.18 in 10.0 mi WNW 13.8 mph - N/A   Clear
10:15 AM 32.2 °F 22.7 °F 18.3 °F 57% 30.18 in 10.0 mi WNW 12.7 mph - N/A   Clear
10:35 AM 33.8 °F 25.8 °F 17.8 °F 52% 30.18 in 10.0 mi NW 10.4 mph - N/A   Clear
10:55 AM 35.6 °F 29.2 °F 17.2 °F 47% 30.18 in 10.0 mi NW 8.1 mph - N/A   Clear
11:35 AM 38.5 °F 33.4 °F 16.3 °F 41% 30.18 in 10.0 mi West 6.9 mph - N/A   Clear
11:55 AM 39.6 °F 33.5 °F 16.0 °F 38% 30.18 in 10.0 mi WNW 9.2 mph - N/A   Clear
12:15 PM 40.6 °F 35.4 °F 14.4 °F 34% 30.17 in 10.0 mi West 8.1 mph - N/A   Clear
12:35 PM 41.4 °F 36.8 °F 13.6 °F 32% 30.16 in 10.0 mi West 6.9 mph - N/A   Clear
12:55 PM 42.1 °F 37.1 °F 10.8 °F 28% 30.15 in 10.0 mi West 8.1 mph - N/A   Clear
1:15 PM 43.7 °F 39.1 °F 10.2 °F 26% 30.14 in 10.0 mi WSW 8.1 mph - N/A   Clear
1:35 PM 43.5 °F 40.1 °F 7.7 °F 23% 30.13 in 10.0 mi WNW 5.8 mph - N/A   Clear
1:55 PM 45.3 °F 40.6 °F 11.5 °F 25% 30.12 in 10.0 mi WSW 9.2 mph - N/A   Clear
2:15 PM 45.5 °F 39.9 °F 11.5 °F 25% 30.11 in 10.0 mi SW 11.5 mph 17.3 mph N/A   Clear
2:35 PM 45.5 °F 39.9 °F 10.2 °F 24% 30.10 in 10.0 mi SW 11.5 mph - N/A   Clear
2:55 PM 45.7 °F 40.6 °F 8.4 °F 22% 30.09 in 10.0 mi WSW 10.4 mph - N/A   Clear
3:15 PM 46.0 °F 40.6 °F 9.3 °F 23% 30.08 in 10.0 mi SW 11.5 mph 17.3 mph N/A   Clear
3:35 PM 46.0 °F 40.2 °F 9.1 °F 22% 30.07 in 10.0 mi SW 12.7 mph 18.4 mph N/A   Clear
4:15 PM 45.7 °F 40.6 °F 9.9 °F 23% 30.07 in 10.0 mi SW 10.4 mph - N/A   Clear
4:35 PM 45.1 °F 39.9 °F 10.2 °F 24% 30.06 in 10.0 mi SW 10.4 mph - N/A   Clear
4:55 PM 44.4 °F 39.5 °F 10.9 °F 26% 30.06 in 10.0 mi SSW 9.2 mph - N/A   Clear
5:15 PM 41.4 °F 36.8 °F 11.7 °F 30% 30.06 in 10.0 mi South 6.9 mph - N/A   Clear
5:35 PM 37.8 °F 31.8 °F 11.3 °F 34% 30.05 in 10.0 mi SSW 8.1 mph - N/A   Clear
5:55 PM 35.2 °F 28.8 °F 11.3 °F 37% 30.05 in 10.0 mi South 8.1 mph - N/A   Clear
6:15 PM 34.2 °F 28.2 °F 12.2 °F 40% 30.05 in 10.0 mi South 6.9 mph - N/A   Clear
6:35 PM 35.4 °F 30.5 °F 12.4 °F 39% 30.04 in 10.0 mi SE 5.8 mph - N/A   Clear
6:55 PM 36.1 °F 31.4 °F 11.5 °F 36% 30.04 in 10.0 mi SE 5.8 mph - N/A   Clear
7:15 PM 34.3 °F 27.0 °F 12.9 °F 41% 30.04 in 10.0 mi SSE 9.2 mph - N/A   Clear
7:35 PM 36.5 °F 30.3 °F 12.2 °F 37% 30.03 in 10.0 mi SSE 8.1 mph - N/A   Clear
7:55 PM 38.1 °F 30.7 °F 11.7 °F 34% 30.02 in 10.0 mi South 11.5 mph 23.0 mph N/A   Clear
8:15 PM 36.5 °F 29.7 °F 11.5 °F 36% 30.02 in 10.0 mi South 9.2 mph - N/A   Clear
8:55 PM 38.3 °F 30.1 °F 12.0 °F 34% 30.00 in 10.0 mi South 13.8 mph - N/A   Clear
9:15 PM 38.1 °F 29.5 °F 12.2 °F 35% 29.99 in 10.0 mi South 15.0 mph - N/A   Clear
9:35 PM 36.7 °F 29.4 °F 13.1 °F 38% 29.99 in 10.0 mi South 10.4 mph - N/A   Clear
9:55 PM 35.8 °F 28.8 °F 13.6 °F 40% 29.98 in 10.0 mi South 9.2 mph - N/A   Clear
10:15 PM 36.3 °F 28.4 °F 14.0 °F 40% 29.97 in 10.0 mi South 11.5 mph - N/A   Clear
10:35 PM 35.2 °F 28.8 °F 14.0 °F 42% 29.97 in 10.0 mi SSE 8.1 mph - N/A   Clear
10:55 PM 34.2 °F 26.2 °F 14.5 °F 45% 29.96 in 10.0 mi South 10.4 mph - N/A   Clear
11:35 PM 33.1 °F 27.7 °F 14.5 °F 47% 29.95 in 10.0 mi South 5.8 mph - N/A   Clear
11:55 PM 31.5 °F 26.8 °F 14.9 °F 50% 29.93 in 10.0 mi SE 4.6 mph - N/A   Clear